Weather History for KBPC - December, 2013

Change the Weather History Date:

Friday, December 6, 2013

  Actual Average (KBGD) Record (KBGD)
Temperature  
Mean Temperature 16 °F 40 °F  
Max Temperature 23 °F 52 °F 71 °F (1981)
Min Temperature 8 °F 29 °F 1 °F (1972)
Degree Days  
Heating Degree Days 50 25  
Month to date heating degree days 143  
Since 1 July heating degree days 860  
Cooling Degree Days 0 0  
Month to date cooling degree days 0  
Year to date cooling degree days 1839  
Moisture  
Dew Point 7 °F    
Average Humidity 72    
Maximum Humidity 86    
Minimum Humidity 50    
Precipitation  
Precipitation 0.00 in 0.02 in 0.22 in (1994)
Month to date precipitation 0.12  
Year to date precipitation 21.07  
Snow  
Snow 0.00 in - - ()
Month to date snowfall  
Since 1 July snowfall  
Snow Depth -    
Sea Level Pressure  
Sea Level Pressure 30.35 in    
Wind  
Wind Speed 8 mph (NNE)    
Max Wind Speed 14 mph    
Max Gust Speed 18 mph    
Visibility 10 miles    
Events Snow    
T = Trace of Precipitation, MM = Missing Value Source: NWS Daily Summary

Daily Weather History Graph

Daily Weather History Graph

Search for Another Location

Airport or City:

Trip Planner

Search our weather history database for the weather conditions in past years. The results will help you decide how hot, cold, wet, or windy it might be!

Date:

Astronomy

Dec. 06, 2013 Rise Set
Actual Time 7:40 AM CST 5:30 PM CST
Civil Twilight 7:12 AM CST 5:58 PM CST
Nautical Twilight 6:40 AM CST 6:30 PM CST
Astronomical Twilight 6:09 AM CST 7:01 PM CST
Moon 10:51 AM CST (12/6) 9:58 PM CST (12/6)
Length of Visible Light 10h 46m
Length of Day
9h 49m
Waxing Crescent, 19% of the Moon is Illuminated
Dec 6
Waxing Crescent
Dec 9
First Quarter
Dec 17
Full
Dec 25
Last Quarter
Jan 1
New

Hourly Weather History & Observations

Time (CST) Temp. Windchill Dew Point Humidity Pressure Visibility Wind Dir Wind Speed Gust Speed Precip Events Conditions
12:15 AM 15.8 °F 6.1 °F 10.4 °F 79% 30.23 in 10.0 mi NE 6.9 mph - N/A   Overcast
12:35 AM 15.8 °F 6.1 °F 10.4 °F 79% 30.23 in 10.0 mi NE 6.9 mph - N/A   Overcast
12:55 AM 15.8 °F 5.1 °F 10.4 °F 79% 30.23 in 10.0 mi NE 8.1 mph - N/A   Overcast
1:15 AM 14.0 °F 2.9 °F 10.4 °F 86% 30.22 in 10.0 mi NE 8.1 mph - N/A   Overcast
1:35 AM 14.0 °F 2.0 °F 10.4 °F 86% 30.23 in 10.0 mi NNE 9.2 mph - N/A   Overcast
1:55 AM 14.0 °F 2.9 °F 8.6 °F 79% 30.22 in 10.0 mi NNE 8.1 mph - N/A   Overcast
2:15 AM 14.0 °F 1.2 °F 8.6 °F 79% 30.22 in 10.0 mi NE 10.4 mph - N/A   Overcast
2:35 AM 14.0 °F 2.9 °F 8.6 °F 79% 30.24 in 10.0 mi NNE 8.1 mph - N/A   Overcast
2:55 AM 14.0 °F 2.9 °F 8.6 °F 79% 30.25 in 10.0 mi NNE 8.1 mph - N/A   Overcast
3:15 AM 14.0 °F 2.0 °F 10.4 °F 86% 30.25 in 10.0 mi NNE 9.2 mph - N/A Snow Light Snow
3:35 AM 14.0 °F 2.0 °F 8.6 °F 79% 30.24 in 10.0 mi NNE 9.2 mph - N/A   Overcast
3:55 AM 14.0 °F 2.9 °F 10.4 °F 86% 30.25 in 7.0 mi NNE 8.1 mph - N/A Snow Light Snow
4:15 AM 14.0 °F -0.2 °F 8.6 °F 79% 30.24 in 10.0 mi North 12.7 mph - N/A Snow Light Snow
4:35 AM 14.0 °F 2.0 °F 8.6 °F 79% 30.24 in 10.0 mi North 9.2 mph - N/A   Overcast
4:55 AM 14.0 °F -0.2 °F 8.6 °F 79% 30.25 in 10.0 mi North 12.7 mph - N/A   Overcast
5:15 AM 14.0 °F 1.2 °F 8.6 °F 79% 30.25 in 10.0 mi North 10.4 mph - N/A   Overcast
5:55 AM 14.0 °F 2.0 °F 8.6 °F 79% 30.27 in 10.0 mi North 9.2 mph - N/A Snow Light Snow
6:15 AM 14.0 °F 2.9 °F 8.6 °F 79% 30.27 in 10.0 mi NNE 8.1 mph - N/A Snow Light Snow
6:35 AM 14.0 °F 1.2 °F 8.6 °F 79% 30.27 in 10.0 mi NNE 10.4 mph - N/A Snow Light Snow
6:55 AM 14.0 °F 1.2 °F 8.6 °F 79% 30.27 in 10.0 mi North 10.4 mph - N/A Snow Light Snow
7:15 AM 14.0 °F 1.2 °F 8.6 °F 79% 30.29 in 10.0 mi North 10.4 mph - N/A   Overcast
7:35 AM 14.0 °F 2.0 °F 8.6 °F 79% 30.30 in 10.0 mi North 9.2 mph - N/A   Overcast
7:55 AM 14.0 °F 2.0 °F 8.6 °F 79% 30.29 in 10.0 mi NNE 9.2 mph - N/A   Overcast
8:15 AM 12.2 °F -0.2 °F 8.6 °F 85% 30.31 in 10.0 mi NNE 9.2 mph - N/A   Overcast
8:35 AM 14.0 °F 2.0 °F 8.6 °F 79% 30.31 in 10.0 mi North 9.2 mph - N/A Snow Light Snow
8:55 AM 14.0 °F 0.5 °F 8.6 °F 79% 30.33 in 10.0 mi North 11.5 mph - N/A Snow Light Snow
9:15 AM 14.0 °F 1.2 °F 8.6 °F 79% 30.33 in 10.0 mi NNE 10.4 mph - N/A   Mostly Cloudy
9:35 AM 14.0 °F 3.9 °F 8.6 °F 79% 30.34 in 10.0 mi NNE 6.9 mph - N/A Snow Light Snow
9:55 AM 15.8 °F 6.1 °F 8.6 °F 73% 30.36 in 10.0 mi North 6.9 mph - N/A Snow Light Snow
10:15 AM 15.8 °F 5.1 °F 8.6 °F 73% 30.37 in 10.0 mi North 8.1 mph - N/A Snow Light Snow
10:35 AM 17.6 °F 6.4 °F 6.8 °F 63% 30.38 in 10.0 mi NNE 9.2 mph - N/A   Mostly Cloudy
10:55 AM 17.6 °F 5.7 °F 8.6 °F 68% 30.38 in 10.0 mi NNE 10.4 mph - N/A   Overcast
11:15 AM 17.6 °F 3.7 °F 8.6 °F 68% 30.38 in 10.0 mi NNE 13.8 mph 18.4 mph N/A   Overcast
11:35 AM 17.6 °F 6.4 °F 6.8 °F 63% 30.38 in 10.0 mi North 9.2 mph 16.1 mph N/A   Overcast
11:55 AM 19.4 °F 7.9 °F 6.8 °F 58% 30.38 in 10.0 mi NNE 10.4 mph 18.4 mph N/A Snow Light Snow
12:15 PM 17.6 °F 5.7 °F 8.6 °F 68% 30.38 in 10.0 mi NNE 10.4 mph - N/A   Overcast
12:35 PM 17.6 °F 6.4 °F 8.6 °F 68% 30.38 in 10.0 mi NNE 9.2 mph - N/A Snow Light Snow
12:55 PM 17.6 °F 6.4 °F 8.6 °F 68% 30.37 in 10.0 mi North 9.2 mph - N/A   Overcast
1:15 PM 19.4 °F 11.5 °F 6.8 °F 58% 30.37 in 10.0 mi NNE 5.8 mph 9.2 mph N/A   Overcast
1:35 PM 19.4 °F 10.4 °F 6.8 °F 58% 30.36 in 10.0 mi NE 6.9 mph - N/A   Overcast
1:55 PM 19.4 °F 8.6 °F 8.6 °F 63% 30.35 in 10.0 mi North 9.2 mph - N/A   Mostly Cloudy
2:15 PM 21.2 °F 10.1 °F 6.8 °F 54% 30.35 in 10.0 mi North 10.4 mph - N/A   Mostly Cloudy
2:35 PM 21.2 °F 10.9 °F 6.8 °F 54% 30.35 in 10.0 mi North 9.2 mph - N/A   Mostly Cloudy
2:55 PM 23.0 °F 13.9 °F 6.8 °F 50% 30.35 in 10.0 mi NNE 8.1 mph - N/A   Mostly Cloudy
3:15 PM 21.2 °F 10.9 °F 6.8 °F 54% 30.35 in 10.0 mi ENE 9.2 mph - N/A   Mostly Cloudy
3:35 PM 21.2 °F 10.9 °F 5.0 °F 50% 30.34 in 10.0 mi NE 9.2 mph - N/A   Scattered Clouds
3:55 PM 21.2 °F 10.9 °F 5.0 °F 50% 30.35 in 10.0 mi NE 9.2 mph - N/A   Clear
4:15 PM 21.2 °F 14.9 °F 5.0 °F 50% 30.36 in 10.0 mi NNE 4.6 mph - N/A   Clear
4:35 PM 19.4 °F 9.5 °F 5.0 °F 54% 30.37 in 10.0 mi NNE 8.1 mph - N/A   Clear
4:55 PM 19.4 °F 9.5 °F 5.0 °F 54% 30.37 in 10.0 mi NE 8.1 mph - N/A   Scattered Clouds
5:35 PM 17.6 °F 8.2 °F 5.0 °F 58% 30.38 in 10.0 mi NE 6.9 mph - N/A   Clear
5:55 PM 15.8 °F 7.2 °F 5.0 °F 62% 30.38 in 10.0 mi NNE 5.8 mph - N/A   Clear
6:15 PM 14.0 °F 6.5 °F 5.0 °F 67% 30.40 in 10.0 mi NNE 4.6 mph - N/A   Clear
6:35 PM 14.0 °F 6.5 °F 5.0 °F 67% 30.41 in 10.0 mi NNE 4.6 mph - N/A   Clear
6:55 PM 12.2 °F 6.1 °F 5.0 °F 73% 30.42 in 10.0 mi NE 3.5 mph - N/A   Clear
7:15 PM 12.2 °F 4.3 °F 5.0 °F 73% 30.42 in 10.0 mi NE 4.6 mph - N/A   Clear
7:35 PM 12.2 °F 6.1 °F 5.0 °F 73% 30.44 in 10.0 mi NNE 3.5 mph - N/A   Clear
7:55 PM 12.2 °F 6.1 °F 5.0 °F 73% 30.45 in 10.0 mi NE 3.5 mph - N/A   Clear
8:15 PM 10.4 °F 0.8 °F 5.0 °F 79% 30.44 in 10.0 mi NE 5.8 mph - N/A   Clear
8:35 PM 10.4 °F 0.8 °F 5.0 °F 79% 30.44 in 10.0 mi NE 5.8 mph - N/A   Clear
8:55 PM 10.4 °F 0.8 °F 5.0 °F 79% 30.44 in 10.0 mi NE 5.8 mph - N/A   Clear
9:15 PM 10.4 °F 2.2 °F 5.0 °F 79% 30.44 in 10.0 mi NE 4.6 mph - N/A   Clear
9:35 PM 10.4 °F 4.0 °F 3.2 °F 73% 30.44 in 10.0 mi ENE 3.5 mph - N/A   Clear
9:55 PM 8.6 °F 0.1 °F 3.2 °F 79% 30.44 in 10.0 mi NE 4.6 mph - N/A   Clear
10:15 PM 10.4 °F 0.8 °F 3.2 °F 73% 30.45 in 10.0 mi NE 5.8 mph - N/A   Clear
10:35 PM 10.4 °F -0.4 °F 3.2 °F 73% 30.46 in 10.0 mi ENE 6.9 mph - N/A   Clear
10:55 PM 8.6 °F 2.0 °F 1.4 °F 73% 30.47 in 10.0 mi East 3.5 mph - N/A   Clear
11:15 PM 8.6 °F -1.3 °F 1.4 °F 73% 30.48 in 10.0 mi ENE 5.8 mph - N/A   Clear
11:35 PM 8.6 °F 0.1 °F 1.4 °F 73% 30.48 in 10.0 mi East 4.6 mph - N/A   Clear
11:55 PM 8.6 °F 0.1 °F 1.4 °F 73% 30.49 in 10.0 mi East 4.6 mph - N/A   Clear